This is the latest recevied weather packets stored in our database for station/object SR1WXW. If no packets are shown the sender has not sent any weather packets the latest 10 day(s).
| Time | Temp. | Humidity | Pressure | Rain* | Wind** | Luminosity | Snow |
|---|---|---|---|---|---|---|---|
| 1777443802 | 5° C | 63% | 1026.2 hPa | 0 mm | - | - | - |
| 1777443502 | 4.44° C | 64% | 1026.2 hPa | 0 mm | - | - | - |
| 1777443202 | 4.44° C | 65% | 1026.1 hPa | 0 mm | - | - | - |
| 1777442902 | 4.44° C | 66% | 1026 hPa | 0 mm | - | - | - |
| 1777442602 | 3.89° C | 67% | 1026 hPa | 0 mm | - | - | - |
| 1777442302 | 3.89° C | 67% | 1026 hPa | 0 mm | - | - | - |
| 1777442002 | 3.33° C | 67% | 1026.1 hPa | 0 mm | - | - | - |
| 1777441703 | 3.33° C | 67% | 1026 hPa | 0 mm | - | - | - |
| 1777441402 | 3.33° C | 67% | 1025.8 hPa | 0 mm | - | - | - |
| 1777441102 | 3.33° C | 68% | 1025.8 hPa | 0 mm | - | - | - |
| 1777440803 | 2.78° C | 69% | 1025.6 hPa | 0 mm | - | - | - |
| 1777440502 | 2.78° C | 71% | 1025.5 hPa | 0 mm | - | - | - |
| 1777440202 | 2.22° C | 73% | 1025.7 hPa | 0 mm | - | - | - |
| 1777439902 | 1.67° C | 73% | 1025.6 hPa | 0 mm | - | - | - |
| 1777439603 | 1.11° C | 72% | 1025.5 hPa | 0 mm | - | - | - |
| 1777439303 | 0.56° C | 71% | 1025.4 hPa | 0 mm | - | - | - |
| 1777439003 | 0° C | 71% | 1025.4 hPa | 0 mm | - | - | - |
| 1777438703 | 0° C | 71% | 1025.5 hPa | 0 mm | - | - | - |
| 1777438403 | 0° C | 71% | 1025.4 hPa | 0 mm | - | - | - |
| 1777438103 | 0° C | 71% | 1025.4 hPa | 0 mm | - | - | - |
| 1777437803 | -0.56° C | 72% | 1025.4 hPa | 0 mm | - | - | - |
| 1777437503 | -0.56° C | 72% | 1025.3 hPa | 0 mm | - | - | - |
| 1777437203 | -0.56° C | 72% | 1025.3 hPa | 0 mm | - | - | - |
| 1777436903 | -0.56° C | 72% | 1025.1 hPa | 0 mm | - | - | - |
| 1777436603 | -0.56° C | 72% | 1025.3 hPa | 0 mm | - | - | - |
* Rain latest hour (hover to see other rain measurements)
** Current wind speed in m/s (hover to see current wind gust speed)